Time,TemperatureF,DewpointF,PressureIn,WindDirection,WindDirectionDegrees,WindSpeedMPH,WindSpeedGustMPH,Humidity,HourlyPrecipIn,Conditions,Clouds,dailyrainin,SoftwareType,DateUTC
2013-02-24 00:01:00,24.6,9.1,21.11,WNW,302,3.1,3.6,51,0.00,,---,0.00,VWS V14.01,2013-02-24 07:01:00,
2013-02-24 00:07:00,24.8,9.2,21.11,West,270,4.0,4.0,51,0.00,,---,0.00,VWS V14.01,2013-02-24 07:07:00,
2013-02-24 00:12:00,25.0,9.4,21.11,West,273,2.7,3.1,51,0.00,,---,0.00,VWS V14.01,2013-02-24 07:12:00,
2013-02-24 00:18:00,25.0,9.4,21.11,NW,304,4.0,4.9,51,0.00,,---,0.00,VWS V14.01,2013-02-24 07:18:00,
2013-02-24 00:23:00,24.8,9.2,21.11,NNW,342,5.4,5.8,51,0.00,,---,0.00,VWS V14.01,2013-02-24 07:23:00,
2013-02-24 00:29:00,23.7,8.2,21.11,NW,324,4.9,4.9,51,0.00,,---,0.00,VWS V14.01,2013-02-24 07:29:00,
2013-02-24 00:34:00,23.5,8.5,21.11,NNW,338,4.9,5.4,52,0.00,,---,0.00,VWS V14.01,2013-02-24 07:34:00,
2013-02-24 00:40:00,23.4,8.4,21.11,NNW,339,4.9,4.9,52,0.00,,---,0.00,VWS V14.01,2013-02-24 07:40:00,
2013-02-24 00:46:00,23.2,8.6,21.11,North,350,7.6,8.1,53,0.00,,---,0.00,VWS V14.01,2013-02-24 07:46:00,
2013-02-24 00:51:00,22.8,8.3,21.11,NNW,348,4.9,4.9,53,0.00,,---,0.00,VWS V14.01,2013-02-24 07:51:00,
2013-02-24 00:57:00,22.8,8.7,21.11,NNW,340,3.6,4.0,54,0.00,,---,0.00,VWS V14.01,2013-02-24 07:57:00,
2013-02-24 01:03:00,23.0,8.9,21.11,NNW,342,3.6,3.6,54,0.00,,---,0.00,VWS V14.01,2013-02-24 08:03:00,
2013-02-24 01:08:00,23.4,9.2,21.11,NNW,339,4.0,4.0,54,0.00,,---,0.00,VWS V14.01,2013-02-24 08:08:00,
2013-02-24 01:13:00,23.5,9.8,21.11,NNW,338,4.0,4.5,55,0.00,,---,0.00,VWS V14.01,2013-02-24 08:13:00,
2013-02-24 01:18:00,23.9,10.1,21.11,NNW,333,4.0,4.0,55,0.00,,---,0.00,VWS V14.01,2013-02-24 08:18:00,
2013-02-24 01:23:00,24.1,10.3,21.11,NNW,331,3.6,3.6,55,0.00,,---,0.00,VWS V14.01,2013-02-24 08:23:00,
2013-02-24 01:29:00,24.4,10.6,21.11,NNW,328,2.7,2.7,55,0.00,,---,0.00,VWS V14.01,2013-02-24 08:29:00,
2013-02-24 01:34:00,25.0,11.1,21.11,NW,321,5.4,5.4,55,0.00,,---,0.00,VWS V14.01,2013-02-24 08:34:00,
2013-02-24 01:39:00,25.2,11.3,21.11,NW,320,4.0,4.0,55,0.00,,---,0.00,VWS V14.01,2013-02-24 08:39:00,
2013-02-24 01:45:00,25.2,11.3,21.11,NW,322,3.6,3.6,55,0.00,,---,0.00,VWS V14.01,2013-02-24 08:45:00,
2013-02-24 01:50:00,25.2,10.9,21.11,NW,322,0.0,0.0,54,0.00,,---,0.00,VWS V14.01,2013-02-24 08:50:00,
2013-02-24 01:55:00,25.0,10.7,21.11,NW,326,4.0,4.0,54,0.00,,---,0.00,VWS V14.01,2013-02-24 08:55:00,
2013-02-24 02:00:00,25.0,11.1,21.11,NW,315,5.4,6.3,55,0.00,,---,0.00,VWS V14.01,2013-02-24 09:00:00,
2013-02-24 02:05:00,25.0,11.1,21.11,NW,313,5.4,5.4,55,0.00,,---,0.00,VWS V14.01,2013-02-24 09:05:00,
2013-02-24 02:11:00,25.3,11.4,21.11,NW,313,0.0,0.0,55,0.00,,---,0.00,VWS V14.01,2013-02-24 09:11:00,
2013-02-24 02:16:00,25.5,11.6,21.11,NNW,335,5.8,5.8,55,0.00,,---,0.00,VWS V14.01,2013-02-24 09:16:00,
2013-02-24 02:21:00,25.3,11.4,21.11,NNW,329,8.7,8.7,55,0.00,,---,0.00,VWS V14.01,2013-02-24 09:21:00,
2013-02-24 02:27:00,26.1,13.3,21.11,NNW,339,8.3,10.1,58,0.00,,---,0.00,VWS V14.01,2013-02-24 09:27:00,
2013-02-24 02:32:00,26.4,14.1,21.11,NNW,346,6.7,7.6,59,0.00,,---,0.00,VWS V14.01,2013-02-24 09:32:00,
2013-02-24 02:37:00,27.0,14.9,21.11,NNW,343,6.3,6.3,60,0.00,,---,0.00,VWS V14.01,2013-02-24 09:37:00,
2013-02-24 02:42:00,27.3,15.3,21.11,NNW,341,8.7,8.7,60,0.00,,---,0.00,VWS V14.01,2013-02-24 09:42:00,
2013-02-24 02:47:00,27.7,16.0,21.11,NNW,338,9.6,10.5,61,0.00,,---,0.00,VWS V14.01,2013-02-24 09:47:00,
2013-02-24 02:53:00,28.2,16.9,21.11,NNW,344,7.2,8.7,62,0.00,,---,0.00,VWS V14.01,2013-02-24 09:53:00,
2013-02-24 02:58:00,28.4,17.1,21.11,North,353,7.6,8.7,62,0.00,,---,0.00,VWS V14.01,2013-02-24 09:58:00,
2013-02-24 03:03:00,28.2,16.5,21.11,NNW,345,6.3,6.3,61,0.00,,---,0.00,VWS V14.01,2013-02-24 10:03:00,
2013-02-24 03:08:00,28.0,16.3,21.11,NNW,337,10.1,10.1,61,0.00,,---,0.00,VWS V14.01,2013-02-24 10:08:00,
2013-02-24 03:14:00,27.9,15.8,21.11,NNW,341,12.3,13.2,60,0.00,,---,0.00,VWS V14.01,2013-02-24 10:14:00,
2013-02-24 03:20:00,27.3,15.3,21.11,North,350,8.3,8.7,60,0.00,,---,0.00,VWS V14.01,2013-02-24 10:20:00,
2013-02-24 03:25:00,26.8,14.4,21.11,NNW,343,8.7,8.7,59,0.00,,---,0.00,VWS V14.01,2013-02-24 10:25:00,
2013-02-24 03:30:00,27.0,15.3,21.11,NW,325,12.3,12.3,61,0.00,,---,0.00,VWS V14.01,2013-02-24 10:30:00,
2013-02-24 03:35:00,27.0,14.9,21.11,NNW,340,9.6,12.8,60,0.00,,---,0.00,VWS V14.01,2013-02-24 10:35:00,
2013-02-24 03:40:00,26.4,14.4,21.11,NNW,345,8.3,8.3,60,0.00,,---,0.00,VWS V14.01,2013-02-24 10:40:00,
2013-02-24 03:45:00,26.2,14.3,21.11,North,4,9.6,9.6,60,0.00,,---,0.00,VWS V14.01,2013-02-24 10:45:00,
2013-02-24 03:51:00,26.6,15.0,21.11,North,5,10.5,10.5,61,0.00,,---,0.00,VWS V14.01,2013-02-24 10:51:00,
2013-02-24 03:57:00,26.8,15.1,21.11,North,4,10.5,11.0,61,0.00,,---,0.00,VWS V14.01,2013-02-24 10:57:00,
2013-02-24 04:03:00,27.0,15.3,21.11,North,357,11.4,12.8,61,0.00,,---,0.00,VWS V14.01,2013-02-24 11:03:00,
2013-02-24 04:09:00,27.1,15.5,21.11,North,357,9.2,10.5,61,0.00,,---,0.00,VWS V14.01,2013-02-24 11:09:00,
2013-02-24 04:14:00,27.0,15.3,21.11,North,2,9.6,10.5,61,0.00,,---,0.00,VWS V14.01,2013-02-24 11:14:00,
2013-02-24 04:19:00,26.6,14.6,21.11,North,0,10.1,10.1,60,0.00,,---,0.00,VWS V14.01,2013-02-24 11:19:00,
2013-02-24 04:24:00,26.1,14.1,21.11,NNW,346,8.3,9.2,60,0.00,,---,0.00,VWS V14.01,2013-02-24 11:24:00,
2013-02-24 04:29:00,25.5,13.6,21.11,North,353,11.0,11.0,60,0.00,,---,0.00,VWS V14.01,2013-02-24 11:29:00,
2013-02-24 04:34:00,25.3,13.8,21.11,North,353,7.6,10.5,61,0.00,,---,0.00,VWS V14.01,2013-02-24 11:34:00,
2013-02-24 04:39:00,25.3,14.2,21.11,North,357,11.0,11.0,62,0.00,,---,0.00,VWS V14.01,2013-02-24 11:39:00,
2013-02-24 04:45:00,25.5,14.3,21.11,NNW,344,10.1,10.5,62,0.00,,---,0.00,VWS V14.01,2013-02-24 11:45:00,
2013-02-24 04:50:00,25.7,14.9,21.11,North,353,8.7,8.7,63,0.00,,---,0.00,VWS V14.01,2013-02-24 11:50:00,
2013-02-24 04:55:00,25.7,14.9,21.11,North,353,8.3,8.3,63,0.00,,---,0.00,VWS V14.01,2013-02-24 11:55:00,
2013-02-24 05:00:00,25.7,14.9,21.11,NNW,342,5.4,7.6,63,0.00,,---,0.00,VWS V14.01,2013-02-24 12:00:00,
2013-02-24 05:06:00,25.3,14.2,21.11,North,4,10.1,10.1,62,0.00,,---,0.00,VWS V14.01,2013-02-24 12:06:00,
2013-02-24 05:11:00,25.2,14.0,21.11,North,353,8.1,8.1,62,0.00,,---,0.00,VWS V14.01,2013-02-24 12:11:00,
2013-02-24 05:16:00,24.8,14.0,21.11,North,357,11.0,11.0,63,0.00,,---,0.00,VWS V14.01,2013-02-24 12:16:00,
2013-02-24 05:21:00,24.8,14.0,21.11,North,0,8.1,8.7,63,0.00,,---,0.00,VWS V14.01,2013-02-24 12:21:00,
2013-02-24 05:27:00,25.0,14.2,21.11,North,353,11.0,11.0,63,0.00,,---,0.00,VWS V14.01,2013-02-24 12:27:00,
2013-02-24 05:34:00,25.2,14.7,21.11,North,0,11.0,11.4,64,0.00,,---,0.00,VWS V14.01,2013-02-24 12:34:00,
2013-02-24 05:40:00,25.0,14.5,21.11,North,1,8.7,8.7,64,0.00,,---,0.00,VWS V14.01,2013-02-24 12:40:00,
2013-02-24 05:45:00,25.2,14.7,21.11,North,0,8.3,10.5,64,0.00,,---,0.00,VWS V14.01,2013-02-24 12:45:00,
2013-02-24 05:50:00,25.3,14.9,21.11,NNW,348,9.6,9.6,64,0.00,,---,0.00,VWS V14.01,2013-02-24 12:50:00,
2013-02-24 05:55:00,25.5,15.4,21.11,North,357,10.5,10.5,65,0.00,,---,0.00,VWS V14.01,2013-02-24 12:55:00,
2013-02-24 06:00:00,25.7,15.6,21.11,North,3,11.4,11.4,65,0.00,,---,0.00,VWS V14.01,2013-02-24 13:00:00,
2013-02-24 06:05:00,25.7,15.2,21.11,NNW,348,11.0,11.0,64,0.00,,---,0.00,VWS V14.01,2013-02-24 13:05:00,
2013-02-24 06:11:00,26.1,15.9,21.11,North,350,11.0,11.0,65,0.00,,---,0.00,VWS V14.01,2013-02-24 13:11:00,
2013-02-24 06:16:00,26.2,16.1,21.11,North,349,11.0,12.3,65,0.00,,---,0.00,VWS V14.01,2013-02-24 13:16:00,
2013-02-24 06:21:00,26.4,16.3,21.11,North,353,11.0,11.0,65,0.00,,---,0.00,VWS V14.01,2013-02-24 13:21:00,
2013-02-24 06:26:00,26.4,16.3,21.11,NNW,346,10.5,10.5,65,0.00,,---,0.00,VWS V14.01,2013-02-24 13:26:00,
2013-02-24 06:31:00,27.3,17.5,21.11,North,0,12.8,12.8,66,0.00,,---,0.00,VWS V14.01,2013-02-24 13:31:00,
2013-02-24 06:37:00,27.9,18.0,21.11,North,3,15.0,15.0,66,0.00,,---,0.00,VWS V14.01,2013-02-24 13:37:00,
2013-02-24 06:42:00,28.2,18.3,21.11,North,0,15.0,15.0,66,0.00,,---,0.00,VWS V14.01,2013-02-24 13:42:00,
2013-02-24 06:47:00,28.0,17.8,21.11,North,0,15.0,15.0,65,0.00,,---,0.00,VWS V14.01,2013-02-24 13:47:00,
2013-02-24 06:53:00,28.0,17.5,21.11,North,9,15.0,15.0,64,0.00,,---,0.00,VWS V14.01,2013-02-24 13:53:00,
2013-02-24 06:58:00,28.2,17.3,21.11,NNE,20,14.5,14.5,63,0.00,,---,0.00,VWS V14.01,2013-02-24 13:58:00,
2013-02-24 07:03:00,28.2,17.3,21.11,NNE,18,12.8,12.8,63,0.00,,---,0.00,VWS V14.01,2013-02-24 14:03:00,
2013-02-24 07:08:00,28.2,16.9,21.11,NNE,25,13.2,13.2,62,0.00,,---,0.00,VWS V14.01,2013-02-24 14:08:00,
2013-02-24 07:14:00,28.0,16.3,21.11,North,7,12.8,12.8,61,0.00,,---,0.00,VWS V14.01,2013-02-24 14:14:00,
2013-02-24 07:20:00,28.0,16.3,21.11,NNE,20,15.4,15.4,61,0.00,,---,0.00,VWS V14.01,2013-02-24 14:20:00,
2013-02-24 07:26:00,28.2,16.1,21.11,North,11,15.4,15.4,60,0.00,,---,0.00,VWS V14.01,2013-02-24 14:26:00,
2013-02-24 07:31:00,28.4,16.3,21.11,North,11,15.4,15.4,60,0.00,,---,0.00,VWS V14.01,2013-02-24 14:31:00,
2013-02-24 07:36:00,28.6,16.5,21.11,North,3,14.1,14.1,60,0.00,,---,0.00,VWS V14.01,2013-02-24 14:36:00,
2013-02-24 07:41:00,28.6,16.1,21.11,North,6,13.2,13.2,59,0.00,,---,0.00,VWS V14.01,2013-02-24 14:41:00,
2013-02-24 07:47:00,28.4,15.9,21.11,NNE,16,15.4,15.4,59,0.00,,---,0.00,VWS V14.01,2013-02-24 14:47:00,
2013-02-24 07:52:00,28.6,16.1,21.11,NNE,15,15.4,15.4,59,0.00,,---,0.00,VWS V14.01,2013-02-24 14:52:00,
2013-02-24 07:58:00,28.8,16.2,21.11,North,6,13.2,13.2,59,0.00,,---,0.00,VWS V14.01,2013-02-24 14:58:00,
2013-02-24 08:03:00,28.9,16.4,21.11,North,7,17.4,17.4,59,0.00,,---,0.00,VWS V14.01,2013-02-24 15:03:00,
2013-02-24 08:08:00,29.1,16.6,21.11,NNE,17,16.3,16.3,59,0.00,,---,0.00,VWS V14.01,2013-02-24 15:08:00,
2013-02-24 08:13:00,29.3,16.8,21.11,North,9,17.4,17.4,59,0.00,,---,0.00,VWS V14.01,2013-02-24 15:13:00,
2013-02-24 08:18:00,29.5,16.9,21.11,North,11,16.3,16.3,59,0.00,,---,0.00,VWS V14.01,2013-02-24 15:18:00,
2013-02-24 08:24:00,29.5,16.9,21.11,NNE,12,17.4,17.4,59,0.00,,---,0.00,VWS V14.01,2013-02-24 15:24:00,
2013-02-24 08:29:00,29.5,16.9,21.11,NNE,13,17.9,17.9,59,0.00,,---,0.00,VWS V14.01,2013-02-24 15:29:00,
2013-02-24 08:34:00,29.7,17.1,21.11,North,6,15.9,17.0,59,0.00,,---,0.00,VWS V14.01,2013-02-24 15:34:00,
2013-02-24 08:39:00,29.8,17.3,21.11,NNE,14,15.4,15.4,59,0.00,,---,0.00,VWS V14.01,2013-02-24 15:39:00,
2013-02-24 08:44:00,30.0,17.4,21.11,North,8,17.4,17.4,59,0.00,,---,0.00,VWS V14.01,2013-02-24 15:44:00,
2013-02-24 08:50:00,30.2,17.2,21.11,North,9,16.8,16.8,58,0.00,,---,0.00,VWS V14.01,2013-02-24 15:50:00,
2013-02-24 08:55:00,30.2,17.2,21.11,NNE,29,16.8,16.8,58,0.00,,---,0.00,VWS V14.01,2013-02-24 15:55:00,
2013-02-24 09:00:00,30.4,17.0,21.11,NNE,14,19.7,19.7,57,0.00,,---,0.00,VWS V14.01,2013-02-24 16:00:00,
2013-02-24 09:05:00,30.6,17.1,21.11,NNE,22,14.5,16.8,57,0.00,,---,0.00,VWS V14.01,2013-02-24 16:05:00,
2013-02-24 09:11:00,30.6,16.7,21.11,NNE,19,18.3,18.3,56,0.00,,---,0.00,VWS V14.01,2013-02-24 16:11:00,
2013-02-24 09:16:00,30.6,16.7,21.11,North,357,23.3,23.3,56,0.00,,---,0.00,VWS V14.01,2013-02-24 16:16:00,
2013-02-24 09:21:00,30.6,16.7,21.11,NNE,19,22.4,22.4,56,0.00,,---,0.00,VWS V14.01,2013-02-24 16:21:00,
2013-02-24 09:26:00,30.7,16.5,21.11,NNE,15,17.9,17.9,55,0.00,,---,0.00,VWS V14.01,2013-02-24 16:26:00,
2013-02-24 09:32:00,30.7,16.5,21.11,NNE,12,15.4,15.4,55,0.00,,---,0.00,VWS V14.01,2013-02-24 16:32:00,
2013-02-24 09:37:00,30.7,16.5,21.11,North,8,21.9,21.9,55,0.00,,---,0.00,VWS V14.01,2013-02-24 16:37:00,
2013-02-24 09:42:00,30.6,16.3,21.11,NNE,13,19.7,19.7,55,0.00,,---,0.00,VWS V14.01,2013-02-24 16:42:00,
2013-02-24 09:47:00,30.6,15.9,21.11,NNE,19,23.3,24.6,54,0.00,,---,0.00,VWS V14.01,2013-02-24 16:47:00,
2013-02-24 09:53:00,30.4,15.7,21.11,North,4,17.4,22.8,54,0.00,,---,0.00,VWS V14.01,2013-02-24 16:53:00,
2013-02-24 09:58:00,30.6,15.9,21.11,NNE,24,22.4,22.4,54,0.00,,---,0.00,VWS V14.01,2013-02-24 16:58:00,
2013-02-24 10:03:00,30.6,15.9,21.11,NNE,24,22.4,22.4,54,0.00,,---,0.00,VWS V14.01,2013-02-24 17:03:00,
2013-02-24 10:08:00,30.6,15.9,21.11,North,1,22.8,22.8,54,0.00,,---,0.00,VWS V14.01,2013-02-24 17:08:00,
2013-02-24 10:14:00,30.6,15.9,21.11,North,0,28.4,28.4,54,0.00,,---,0.00,VWS V14.01,2013-02-24 17:14:00,
2013-02-24 10:19:00,30.6,15.9,21.11,North,357,26.2,26.2,54,0.00,,---,0.00,VWS V14.01,2013-02-24 17:19:00,
2013-02-24 10:24:00,30.4,15.7,21.11,NNW,348,22.4,22.4,54,0.00,,---,0.00,VWS V14.01,2013-02-24 17:24:00,
2013-02-24 10:30:00,30.4,15.7,21.11,North,357,21.9,21.9,54,0.00,,---,0.00,VWS V14.01,2013-02-24 17:30:00,
2013-02-24 10:35:00,30.6,15.9,21.11,NNE,12,19.7,19.7,54,0.00,,---,0.00,VWS V14.01,2013-02-24 17:35:00,
2013-02-24 10:40:00,30.6,15.9,21.11,North,0,15.4,15.4,54,0.00,,---,0.00,VWS V14.01,2013-02-24 17:40:00,
2013-02-24 10:45:00,30.6,16.3,21.11,North,0,25.1,25.1,55,0.00,,---,0.00,VWS V14.01,2013-02-24 17:45:00,
2013-02-24 10:50:00,30.6,15.9,21.11,North,0,22.8,22.8,54,0.00,,---,0.00,VWS V14.01,2013-02-24 17:50:00,
2013-02-24 10:56:00,30.6,15.9,21.11,North,353,21.9,23.7,54,0.00,,---,0.00,VWS V14.01,2013-02-24 17:56:00,
2013-02-24 11:01:00,30.6,16.3,21.11,North,8,18.8,18.8,55,0.00,,---,0.00,VWS V14.01,2013-02-24 18:01:00,
2013-02-24 11:06:00,30.7,16.5,21.11,North,353,15.0,15.0,55,0.00,,---,0.00,VWS V14.01,2013-02-24 18:06:00,
2013-02-24 11:12:00,30.4,16.6,21.11,North,349,15.4,18.3,56,0.00,,---,0.00,VWS V14.01,2013-02-24 18:12:00,
2013-02-24 11:17:00,30.2,16.8,21.11,North,353,17.0,17.0,57,0.00,,---,0.00,VWS V14.01,2013-02-24 18:17:00,
2013-02-24 11:22:00,30.2,16.8,21.11,North,6,18.3,18.3,57,0.00,,---,0.00,VWS V14.01,2013-02-24 18:22:00,
2013-02-24 11:27:00,30.2,16.8,21.11,North,353,23.3,23.3,57,0.00,,---,0.00,VWS V14.01,2013-02-24 18:27:00,
2013-02-24 11:33:00,30.2,16.8,21.11,North,353,17.4,17.4,57,0.00,,---,0.00,VWS V14.01,2013-02-24 18:33:00,
2013-02-24 11:38:00,30.6,17.1,21.11,North,357,19.7,19.7,57,0.00,,---,0.00,VWS V14.01,2013-02-24 18:38:00,
2013-02-24 11:43:00,30.9,17.5,21.11,North,357,19.7,19.7,57,0.00,,---,0.00,VWS V14.01,2013-02-24 18:43:00,
2013-02-24 11:49:00,31.1,17.7,21.11,North,1,13.2,13.2,57,0.00,,---,0.00,VWS V14.01,2013-02-24 18:49:00,